1st Responders/1st Detectors/Storm Spotters Weather Summary for Clark County, KY

Forecast Maps


Reg. NEXRAD Animation


National Fire Danger: Day 1 & 2 Map

Current NWS Watch/Warnings

SPC Convective Day 1 Outlook


Day 2 Outlook

(Click images to enlarge|Page will refresh every 5 minutes)
UK Ag. Weather Center Desktop Severe Weather Service[HERE]
Clark County, KY Hazardous Weather Outlook Webcast
(9 AM to 9 PM Mon-Fri)
[Fast]
[Dial-up]


UKAWC 1st Detectors/1st Responders Precision Weather Forecast For CLARK County, Kentucky
(based on the NWS County Digital Forecast)

ISSUED AT 19:00 UTC ON SUNDAY OCT 22 2017
DAY SUNDAY
EDT 3HR 4P 5P 6P 7P
MAX/MIN -- -- -- 79°
TEMP 79° 79° 76° 72°
SKY COVER 25% 26% 29% 33%
Clouds
DEW PT 52° 52° 54° 52°
RH 38% 40% 46% 50%
POP 12HR -- -- -- --
RAIN/SNOW (liq.equ) -- -- -- --
SNOWFALL -- -- -- --
WIND SPEED(MPH) 8 8 7 6
WIND Gust(MPH) 22 22 18 10
WIND DIR S S S S
DEW -- -- -- --
HeatIndex 79 79 76 72
Rain Showers -- -- -- --
WIND CHILL -- -- -- --
SPRAY COND
DRY COND
LIVESTOCK COLDSTRESS
LIVESTOCK HEATSTRESS 72.11 72.33 70.89 68.37



DAY MONDAY TUESDAY WEDNESDAY THURSDAY FRIDAY SATURDAY
EDT 6HR 8P 9P 10P 11P MIDN 1A 2A 3A 4A 5A 6A 7A 8A 9A 10A 11A NOON 1P 2P 3P 4P 5P 6P 7P 8P 9P 10P 11P MIDN 1A 2A 3A 5A 8A 11A 2P 5P 8P 2A 8A 2P 8P 2A 8A 2P 8P 2A 8A 2P 8P 2A 8A 2P 8P
MAX/MIN -- -- -- -- -- -- -- -- -- -- -- -- 59° -- -- -- -- -- -- -- -- -- -- 67° -- -- -- -- -- -- -- -- -- 47° -- -- 58° -- -- 38° 52° -- -- 36° 61° -- -- 45° 67° -- -- 41° 58° --
TEMP 68° 65° 65° 63° 63° 63° 63° 61° 61° 59° 59° 59° 61° 61° 63° 65° 65° 67° 67° 67° 67° 65° 63° 61° 61° 59° 58° 56° 54° 54° 52° 52° 49° 47° 54° 58° 56° 49° 43° 40° 52° 47° 41° 38° 61° 54° 47° 47° 67° 56° 47° 41° 58° 54°
SKY COVER 36% 36% 37% 38% 47% 65% 74% 78% 87% 91% 91% 91% 95% 95% 97% 98% 98% 99% 99% 99% 98% 98% 96% 92% 90% 87% 81% 79% 75% 67% 63% 62% 60% 66% 42% 54% 61% 56% 44% 62% 56% 52% 23% 13% 8% 7% 10% 20% 40% 53% 65% 64% 63% 53%
Clouds
DEW PT 54° 54° 54° 54° 54° 54° 56° 56° 56° 56° 56° 56° 58° 58° 58° 59° 61° 61° 61° 61° 61° 59° 58° 58° 56° 56° 54° 54° 52° 50° 49° 49° 47° 45° 45° 43° 40° 38° 36° 36° 34° 36° 36° 34° 40° 41° 41° 41° 47° 47° 43° 40° 40° 40°
RH 58% 65% 67% 70% 72% 74% 77% 80% 86% 90% 89% 89% 90% 89% 84% 83% 83% 80% 83% 84% 80% 81% 83% 86% 87% 86% 87% 89% 92% 89% 89% 89% 92% 93% 74% 57% 53% 66% 78% 84% 51% 65% 79% 85% 45% 63% 79% 79% 48% 71% 82% 95% 53% 61%
POP 12HR 6% -- -- -- -- -- -- -- -- -- -- -- 81% -- -- -- -- -- -- -- -- -- -- -- 95% -- -- -- -- -- -- -- -- 60% -- -- -- 29% -- 6% -- 13% -- 7% -- 2% -- 5% -- 29% -- 41% -- 36%
RAIN/SNOW (liq.equ) 0.00in -- -- -- -- -- 0.00in -- -- -- -- -- 0.13in -- -- -- -- -- 0.66in -- -- -- -- -- 0.43in -- -- -- -- -- 0.09in -- -- 0.02in -- 0.00in -- 0.00in -- -- -- -- -- -- -- -- -- -- -- -- -- -- -- --
SNOWFALL 0in -- -- -- -- -- 0in -- -- -- -- -- 0in -- -- -- -- -- 0in -- -- -- -- -- 0in -- -- -- -- -- 0in -- -- 0in -- 0in -- 0in -- -- -- -- -- -- -- -- -- -- -- -- -- -- -- --
WIND SPEED(MPH) 6 6 7 7 7 7 7 7 6 6 6 6 5 6 7 7 7 7 7 7 7 8 8 8 8 8 7 7 7 7 7 7 7 7 8 10 13 7 7 7 10 7 6 5 7 7 7 7 9 7 6 6 7 5
WIND DIR SE SE SE S SE SE SE SE SE SE SE SE SE SE SE SE SE SE S S SW SW SW SW SW SW W W W W W W W SW W W W W W W W SW SW S SW S S S SW S SW W W W
HeatIndex 68 65 65 63 63 63 63 61 61 59 59 59 61 61 63 65 65 67 67 67 67 65 63 61 61 59 58 56 54 54 52 52 49 47 54 58 56 49 38 35 52 47 38 35 61 54 47 47 67 56 47 38 58 54
Rain Showers -- -- -- -- Slight Chance Chance Chance Chance Chance Chance Chance Definite Definite Definite Definite Definite Definite Definite Definite Definite Definite Definite Definite Definite Likely Likely Likely Likely Likely Likely Chance Chance Chance Chance Chance Slight Chance Slight Chance -- -- -- -- -- -- -- -- -- -- -- Chance Chance Chance Chance Chance --
WIND CHILL -- -- -- -- -- -- -- -- -- -- -- -- -- -- -- -- -- -- -- -- -- -- -- -- -- -- -- -- -- -- -- -- -- -- -- -- -- -- 39° 35° -- -- 37° 35° -- -- -- -- -- -- -- 37° -- --
SPRAY COND
DRY COND
LIVESTOCK COLDSTRESS
LIVESTOCK HEATSTRESS 65.87 63.81 63.87 62.31 62.35 62.40 62.47 60.76 60.83 58.99 58.99 58.99 60.88 60.87 62.63 64.42 64.42 66.10 66.23 66.28 66.10 64.35 62.61 60.83 60.84 58.98 58.06 56.17 54.21 54.29 52.41 52.41 49.43 47.45 54.69 58.19 56.72 50.83 44.91 41.65 53.83 49.27 43.06 39.72 60.33 54.98 48.36 48.36 64.65 56.45 48.17 41.49 58.21 55.03

Click on individual weather variable above in left-hand column (ie., TEMP, RH, QPF 12HR) to view state forecast maps






NWS 48 Hr. Forecast Maps,

Regional Hourly Observations For CLARK County, Kentucky
Issued at 300 PM EDT SUN OCT 22 2017
NORTHEAST KENTUCKY
  
CITY           SKY/WX    TMP DP  RH WIND       PRES   REMARKS
LEXINGTON      PTSUNNY   76  52  43 S16G26    30.15F                  
COVINGTON      PTSUNNY   74  57  55 S14       30.11F                  
FRANKFORT      CLOUDY    74  51  44 S14       30.13F                  


Current NOWCAST not available:
Nowcasts are not issued routinely during fair weather. Only when
precipitation or other significant weather is occuring in this county will these
forecasts be issued. Currently, there is no short term forecast in effect.


Fire Weather Forecast For CLARK County, KY
Provided by the National Weather Service:

Issued at: Sun Oct 22 15:05:01 EDT 2017


                      Today        Tonight      Mon          

CLOUD COVER           MClear       PCldy        Cloudy       
PRECIP TYPE           NONE         showers      showers      
CHANCE PRECIP (%)     0            70           100          
TEMP (24H TREND)      80 (+5)      58 (+4)      67           
RH % (24H TREND)      41 (+5)      98 (+16)     78           
20FTWND-VAL/AM(MPH)   S  6 G18                  Lgt/Var      
20FTWND-RDG/PM(MPH)   S  8 G17     SE  5        SW  6        
PRECIP AMOUNT         0.00         0.20         0.98         
MIXING HGT(FT-AGL/MSL)5072                      2322         
TRANSPORT WND (MPH)   S 18                      SW 14        
VENT RATE (KT-FT)     90203                     28485        
DISPERSION            Good                      Poor         
DSI                   SLGT UNSTBL  SLGT UNSTBL  STBL         
LAL                   1            1            1            
HAINES INDEX          4            2            3            
ADI EARLY             45 GEN GOOD  7 POOR       13 GEN POOR  
ADI LATE              64 GOOD      7 POOR       25 FAIR      
MAX LVORI EARLY       4            4            5            
MAX LVORI LATE        1            6            4            

REMARKS...ADI IS ATMOSPHERIC DISPERSION INDEX BY LAVDAS.        
LVORI IS LOW VISIBILITY OCCURRENCE RISK INDEX.

.TUESDAY...Mostly cloudy. A 50 percent chance of rain showers.
Lows in the upper 40s. Highs in the upper 50s. Southwest winds
around 5 mph. 
.WEDNESDAY...Mostly cloudy. Lows in the upper 30s. Highs in the
lower 50s. West winds around 5 mph. 
.THURSDAY...Mostly clear. Lows in the upper 30s. Highs in the
lower 60s. South winds up to 5 mph. 
.FRIDAY...Partly cloudy. A 40 percent chance of rain showers.
Lows in the upper 40s. Highs in the mid 60s. Southwest winds 5 to
10 mph. 
.SATURDAY...Mostly cloudy. A 50 percent chance of rain showers.
Lows in the lower 40s. Highs in the upper 50s. West winds 5 to
10 mph. 

SPC's Fire Weather Web Tool (Excellent!), SPC's Fire Weather Outlooks, NWS Fire Weather WEB, Fire Danger Class Map,
Keetch-Byram Drought Index, ROMAN Web, Haines Index ,
WFAS's 10-hr Dead Fuel Moist., WFAS's 100-hr Dead Fuel Moist., Probablity of Ignition, Visual blackness Map, Palmer Drought Index, HPC's Rainfall Forecast Maps


Hazardous Weather Outlook For CLARK County, Kentucky
311 AM EDT Sun Oct 22 2017 /211 AM CDT Sun Oct 22 2017/

 DAY ONE  Today and Tonight.

Widespread showers are expected tonight with the potential for
locally heavy rain.

 DAYS TWO THROUGH SEVEN  Monday through Saturday.

Locally heavy rain will be possible Monday, especially in the morning
hours. Total rainfall amounts from Sunday night through Monday
afternoon are expected to be between 1 and 2 inches, with locally
higher amounts possible across central Kentucky. 

 SPOTTER INFORMATION STATEMENT  

Spotters are encouraged to report rainfall amounts.

Latest CLARK County, Kentucky Watches, Warnings and Advisories.
Additional Drought Info.: UKAWC Drought Page, Kentucky Drought Watch


7-Day Forecast For CLARK County, KY

TODAY
Mostly sunny. Highs in the lower 80s. South winds up to 10 mph.

TONIGHT
Partly cloudy with a 40 percent chance of showers. Lows around 60. Southeast winds 5 to 10 mph.

MONDAY
Showers. Highs in the upper 60s. South winds 5 to 10 mph. Chance of showers near 100 percent.

MONDAY NIGHT
Showers likely. Lows in the upper 40s. Southwest winds 5 to 10 mph. Chance of showers 60 percent.

TUESDAY
Partly cloudy with a 40 percent chance of showers. Highs in the upper 50s. West winds 5 to 15 mph with gusts to around 30 mph.

TUESDAY NIGHT
Partly cloudy. Lows in the upper 30s.

WEDNESDAY
Partly cloudy. Highs in the lower 50s.

WEDNESDAY NIGHT
Partly cloudy. Lows in the upper 30s.

THURSDAY
Mostly sunny. Patchy frost. Highs in the lower 60s.

THURSDAY NIGHT
Mostly clear. Lows in the mid 40s.

FRIDAY
Partly cloudy with a 30 percent chance of showers. Highs in the upper 60s.

FRIDAY NIGHT
Partly cloudy with a 40 percent chance of showers. Lows in the lower 40s.

SATURDAY
Partly cloudy with a 40 percent chance of showers. Highs in the upper 50s.

Ag Weather Center, Department of Biosystems & Agricultural Engineering, University of Kentucky